Fairfield, IA

7:22 AM CST on December 09, 2019 (GMT -0600)
Fairfield Municipal

Weather History for KFFL - September, 2019

Change the Weather History Date:

Saturday, September 28, 2019

  Actual Average Record
Temperature  
Mean Temperature 62 °F -  
Max Temperature 66 °F 73 °F 138 °F (1997)
Min Temperature 59 °F 49 °F 39 °F (1989)
Degree Days  
Heating Degree Days 2    
Growing Degree Days 12 (Base 50)    
Moisture  
Dew Point 62 °F    
Average Humidity 98    
Maximum Humidity 100    
Minimum Humidity 94    
Precipitation  
Precipitation 1.31 in - - ()
Sea Level Pressure  
Sea Level Pressure 30.02 in    
Wind  
Wind Speed 11 mph (NE)    
Max Wind Speed 20 mph    
Max Gust Speed 25 mph    
Visibility 8 miles    
Events      
Averages and records for this station are not official NWS values.
T = Trace of Precipitation, MM = Missing Value Source: NWS Daily Summary

Daily Weather History Graph

Daily Weather History Graph

Search for Another Location

Airport or City:

Astronomy

Sep. 28, 2019 Rise Set
Actual Time 7:01 AM CDT 6:55 PM CDT
Civil Twilight 6:33 AM CDT 7:22 PM CDT
Nautical Twilight 6:01 AM CDT 7:54 PM CDT
Astronomical Twilight 5:29 AM CDT 8:26 PM CDT
Moon 6:37 AM CDT (9/28) 7:21 PM CDT (9/28)
Length of Visible Light 12h 48m
Length of Day
11h 53m
Waning Crescent, 0% of the Moon is Illuminated
Sep 28
Waning Crescent
Sep 28
New
Oct 5
First Quarter
Oct 13
Full
Oct 21
Last Quarter

Hourly Weather History & Observations

Time (CDT) Temp. Dew Point Humidity Pressure Visibility Wind Dir Wind Speed Gust Speed Precip Events Conditions
12:35 AM 66.2 °F 66.2 °F 100% 29.80 in 9.0 mi NNE 9.2 mph - N/A   Overcast
12:55 AM 64.4 °F 64.4 °F 100% 29.83 in 10.0 mi North 9.2 mph - 0.10 in   Overcast
1:15 AM 64.4 °F 64.4 °F 100% 29.83 in 10.0 mi NE 9.2 mph - N/A   Overcast
1:35 AM 64.4 °F 64.4 °F 100% 29.84 in 7.0 mi NNE 10.4 mph - N/A   Overcast
1:55 AM 64.4 °F 64.4 °F 100% 29.86 in 8.0 mi NNE 9.2 mph - 0.01 in   Overcast
2:15 AM 64.4 °F 64.4 °F 100% 29.86 in 8.0 mi NNE 9.2 mph - N/A   Overcast
2:35 AM 64.4 °F 64.4 °F 100% 29.88 in 4.0 mi North 4.6 mph - N/A   Overcast
2:55 AM 64.4 °F 64.4 °F 100% 29.88 in 5.0 mi NNE 9.2 mph - 0.08 in   Overcast
3:35 AM 62.6 °F 62.6 °F 100% 29.91 in 3.0 mi NNW 9.2 mph - N/A   Overcast
3:55 AM 62.6 °F 62.6 °F 100% 29.91 in 3.0 mi North 6.9 mph 15.0 mph 0.20 in   Overcast
4:15 AM 62.6 °F 62.6 °F 100% 29.91 in 4.0 mi North 9.2 mph - N/A   Overcast
4:55 AM 60.8 °F 60.8 °F 100% 29.91 in 8.0 mi NNE 11.5 mph - 0.07 in   Overcast
5:15 AM 60.8 °F 60.8 °F 100% 29.93 in 6.0 mi North 12.7 mph - N/A   Overcast
5:35 AM 60.8 °F 60.8 °F 100% 29.94 in 10.0 mi North 11.5 mph - N/A   Overcast
5:55 AM 60.8 °F 60.8 °F 100% 29.95 in 10.0 mi North 8.1 mph - 0.02 in   Overcast
6:15 AM 60.8 °F 60.8 °F 100% 29.95 in 10.0 mi North 11.5 mph - N/A   Overcast
6:35 AM 59.0 °F 59.0 °F 100% 29.97 in 10.0 mi North 10.4 mph - N/A   Overcast
6:55 AM 59.0 °F 59.0 °F 100% 29.98 in 10.0 mi North 9.2 mph - N/A   Overcast
7:15 AM 59.0 °F 59.0 °F 100% 29.99 in 10.0 mi North 9.2 mph - N/A   Overcast
7:35 AM 59.0 °F 59.0 °F 100% 30.00 in 10.0 mi North 8.1 mph - N/A   Overcast
7:55 AM 59.0 °F 59.0 °F 100% 30.00 in 10.0 mi North 10.4 mph - N/A   Overcast
8:15 AM 59.0 °F 59.0 °F 100% 30.01 in 10.0 mi NNE 8.1 mph - N/A   Overcast
8:35 AM 59.0 °F 59.0 °F 100% 30.00 in 10.0 mi NE 8.1 mph - N/A   Overcast
8:55 AM 60.8 °F 59.0 °F 94% 30.01 in 10.0 mi NNE 10.4 mph - N/A   Overcast
9:15 AM 60.8 °F 59.0 °F 94% 30.03 in 10.0 mi NNE 12.7 mph - N/A   Overcast
9:35 AM 60.8 °F 59.0 °F 94% 30.04 in 10.0 mi NE 11.5 mph 17.3 mph N/A   Overcast
9:55 AM 60.8 °F 59.0 °F 94% 30.04 in 10.0 mi NE 10.4 mph - N/A   Overcast
10:15 AM 60.8 °F 60.8 °F 100% 30.05 in 10.0 mi NE 12.7 mph - N/A   Overcast
10:35 AM 62.6 °F 60.8 °F 94% 30.05 in 10.0 mi NE 11.5 mph - N/A   Overcast
10:55 AM 64.4 °F 62.6 °F 94% 30.04 in 10.0 mi NE 11.5 mph - N/A   Overcast
11:15 AM 64.4 °F 62.6 °F 94% 30.05 in 10.0 mi NE 15.0 mph - N/A   Overcast
11:35 AM 64.4 °F 62.6 °F 94% 30.06 in 10.0 mi ENE 10.4 mph 18.4 mph N/A   Overcast
11:55 AM 64.4 °F 62.6 °F 94% 30.07 in 10.0 mi NE 12.7 mph - N/A   Overcast
12:15 PM 64.4 °F 62.6 °F 94% 30.07 in 10.0 mi NE 10.4 mph 16.1 mph N/A   Overcast
12:35 PM 64.4 °F 62.6 °F 94% 30.08 in 10.0 mi ENE 9.2 mph - N/A   Overcast
12:55 PM 64.4 °F 62.6 °F 94% 30.09 in 10.0 mi ENE 8.1 mph - N/A   Overcast
1:15 PM 64.4 °F 62.6 °F 94% 30.08 in 10.0 mi NE 9.2 mph - N/A   Overcast
1:35 PM 64.4 °F 62.6 °F 94% 30.08 in 10.0 mi NE 10.4 mph - N/A   Overcast
1:55 PM 64.4 °F 62.6 °F 94% 30.07 in 10.0 mi NE 12.7 mph - N/A   Overcast
2:15 PM 64.4 °F 62.6 °F 94% 30.07 in 10.0 mi ENE 11.5 mph - N/A   Overcast
2:35 PM 64.4 °F 62.6 °F 94% 30.07 in 10.0 mi ENE 10.4 mph - N/A   Overcast
2:55 PM 64.4 °F 62.6 °F 94% 30.07 in 9.0 mi ENE 12.7 mph - N/A   Overcast
3:35 PM 64.4 °F 64.4 °F 100% 30.06 in 8.0 mi ENE 12.7 mph - N/A   Overcast
3:55 PM 64.4 °F 64.4 °F 100% 30.05 in 7.0 mi ENE 17.3 mph - N/A   Overcast
4:15 PM 64.4 °F 64.4 °F 100% 30.05 in 8.0 mi ENE 12.7 mph - N/A   Overcast
4:35 PM 64.4 °F 64.4 °F 100% 30.05 in 9.0 mi ENE 11.5 mph - N/A   Overcast
4:55 PM 64.4 °F 62.6 °F 94% 30.05 in 9.0 mi ENE 15.0 mph - N/A   Overcast
5:15 PM 64.4 °F 62.6 °F 94% 30.04 in 8.0 mi ENE 15.0 mph - N/A   Overcast
5:35 PM 64.4 °F 62.6 °F 94% 30.03 in 8.0 mi ENE 16.1 mph 21.9 mph N/A   Overcast
5:55 PM 64.4 °F 62.6 °F 94% 30.03 in 7.0 mi ENE 15.0 mph - N/A   Overcast
6:15 PM 64.4 °F 62.6 °F 94% 30.03 in 7.0 mi ENE 17.3 mph 24.2 mph N/A   Overcast
6:35 PM 62.6 °F 62.6 °F 100% 30.04 in 4.0 mi ENE 12.7 mph 21.9 mph N/A   Overcast
6:55 PM 62.6 °F 62.6 °F 100% 30.06 in 4.0 mi ENE 15.0 mph 20.7 mph N/A   Overcast
7:15 PM 62.6 °F 62.6 °F 100% 30.06 in 2.5 mi ENE 15.0 mph - N/A   Overcast
7:35 PM 62.6 °F 62.6 °F 100% 30.08 in 5.0 mi ENE 19.6 mph - N/A   Overcast
7:55 PM 60.8 °F 60.8 °F 100% 30.09 in 7.0 mi ENE 17.3 mph 24.2 mph 0.02 in   Overcast
8:15 PM 60.8 °F 60.8 °F 100% 30.10 in 6.0 mi ENE 6.9 mph 12.7 mph N/A   Overcast
8:35 PM 60.8 °F 60.8 °F 100% 30.12 in 4.0 mi Variable 4.6 mph 11.5 mph N/A   Overcast
8:55 PM 60.8 °F 60.8 °F 100% 30.11 in 2.5 mi ENE 13.8 mph - 0.31 in   Overcast
9:15 PM 60.8 °F 60.8 °F 100% 30.11 in 4.0 mi ENE 12.7 mph - N/A   Overcast
9:35 PM 60.8 °F 60.8 °F 100% 30.12 in 4.0 mi NE 8.1 mph - N/A   Overcast
9:55 PM 60.8 °F 60.8 °F 100% 30.12 in 4.0 mi NNE 9.2 mph - 0.23 in   Overcast
10:15 PM 59.0 °F 59.0 °F 100% 30.11 in 4.0 mi NE 12.7 mph - N/A   Overcast
10:35 PM 59.0 °F 59.0 °F 100% 30.11 in 6.0 mi ENE 13.8 mph 19.6 mph N/A   Overcast
10:55 PM 59.0 °F 59.0 °F 100% 30.11 in 5.0 mi ENE 15.0 mph - 0.17 in   Overcast
11:15 PM 59.0 °F 59.0 °F 100% 30.10 in 4.0 mi East 13.8 mph 20.7 mph N/A   Overcast
11:35 PM 59.0 °F 59.0 °F 100% 30.09 in 6.0 mi East 17.3 mph 23.0 mph N/A   Overcast
11:55 PM 59.0 °F 59.0 °F 100% 30.08 in 9.0 mi East 17.3 mph 25.3 mph 0.10 in   Overcast